Location: Ammerl�gen
(47.2167°N, 9.6000°E)
Time: 13:22:55
(UTC+00:00)

RS-15 - Pass Details

Date: 12 December 2021
Orbit: 1882 x 2162 km, 64.8° (Epoch: 22 January)

Event Time Altitude Azimuth Distance (km) Brightness Sun altitude
Exits shadow 02:22:46 60° 16° (NNE) 2,330 8.3 -45.6°
Drops below altitude 10° 02:32:20 10° 38° (NE) 4,655 10.4 -44.1°
Sets 02:35:52 0° 41° (NE) 5,679 11.0 -43.5°
